Location: Riedlingen
(48.1569°N, 9.4757°E)
Time: 04:14:13
(UTC+02:00)

ISS - Pass Details

Date: 19 May 2021
Orbit: 417 x 422 km, 51.6° (Epoch: 15 June)

Event Time Altitude Azimuth Distance (km) Brightness Sun altitude
Rises 02:06:00 0° 292° (WNW) 2,373 0.2 -21.2°
Reaches altitude 10° 02:08:07 10° 291° (WNW) 1,507 -0.9 -21.2°
Enters shadow 02:09:09 19° 289° (WNW) 1,090 -1.6 -21.1°
